Find Starlink 35621

NORAD ID: 66156 Int'l Des: 2025-240 Owner: SPXS Country: US Constellation: starlink operational
LEOCIRCULAR

Aktuelle Ansicht

3D-Globus wird geladen...

Über Starlink 35621

Beschreibung wird geladen...

Nächste Überflüge

Passes for default location (London). Set your location on the main map for personalized predictions.

Höhenverlauf

Loading altitude history...

Zweizeiliger Elementsatz

1 66156U 25240L 26146.14403758 .00021386 00000-0 73202-3 0 9995
2 66156 53.1589 63.2865 0001073 105.0477 255.0643 15.30203974 33849
Epoch: 26. Mai 2026 • Age: 19 hours

Aktueller Status

Höhe 475.5 km
Geschwindigkeit 7.63 km/s
Subsatellitenpunkt 20.82°N, 144.14°W
Startdatum 25. Okt. 2025
Alter 0.5 years
Typ internet

Technische Details

Klassifizierung Payload
Masse 575.00 kg
Trockenmasse 530.00 kg
Gesamtmasse 575.00 kg
Länge 0.30 m
Durchmesser 4.10 m
Spannweite 29.00 m
Form Box + pan
Hersteller SPXS
Bus-Typ Starlink V2MO
Phasenstatus In Orbit
Besitzer/Staat SPXS/US

Most Searched